Flag for China

Past Weather in 38°58'30.7"N, 117°49'01.6"E, China — Yesterday and Last 2 Weeks

Currently: 75 °F. Passing clouds. (Weather station: Tianjin / Zhangguizhu, China). See more current weather

Past Weather in 38°58'30.7"N, 117°49'01.6"E — Graph

°F

38°58'30.7"N, 117°49'01.6"E Temperature Yesterday

Maximum temperature yesterday: 91 °F (at 1:00 pm)
Minimum temperature yesterday: 73 °F (at 3:00 am)
Average temperature yesterday: 82 °F

High & Low Weather Summary for the Past Weeks

 TemperatureHumidityPressure
High91 °F (May 22, 2:00 pm)100% (May 25, 11:00 pm)30.30 "Hg (May 25, 11:00 pm)
Low57 °F (May 21, 5:00 am)9% (May 15, 4:30 pm)29.56 "Hg (May 16, 5:30 pm)
Average72 °F53%29.83 "Hg
* Reported May 15 3:00 am — May 30 3:30 am, 38°58'30.7"N, 117°49'01.6"E. Weather by CustomWeather, © 2024

Note: Actual official high and low records may vary slightly from our data, if they occured in-between our weather recording intervals... More about our weather records

38°58'30.7"N, 117°49'01.6"E Weather History for the Previous 24 Hours

Scroll right to see more
 ConditionsComfort  
Time TempWeatherWind HumidityBarometerVisibility
3:30 am
Thu, May 30
77 °FClear.6 mph36%29.65 "Hg10 mi
3:00 am77 °FPassing clouds.3 mph36%29.65 "HgN/A
2:30 am77 °FPassing clouds.6 mph36%29.65 "HgN/A
2:00 am77 °FPassing clouds.6 mph36%29.65 "HgN/A
1:30 am79 °FPassing clouds.6 mph34%29.65 "HgN/A
1:00 am79 °FPassing clouds.6 mph34%29.65 "HgN/A
12:30 am79 °FClear.6 mph34%29.65 "Hg10 mi
12:00 am79 °FClear.8 mph34%29.65 "Hg10 mi
11:30 pm
Wed, May 29
81 °FPassing clouds.8 mph30%29.65 "HgN/A
11:00 pm81 °FPassing clouds.6 mph30%29.65 "HgN/A
10:00 pm82 °FPassing clouds.8 mph28%29.68 "HgN/A
9:30 pm82 °FPassing clouds.10 mph28%29.68 "HgN/A
9:00 pm82 °FPassing clouds.10 mph30%29.65 "HgN/A
8:00 pm82 °FClear.8 mph28%29.65 "Hg10 mi
7:00 pm84 °FPassing clouds.10 mph27%29.62 "HgN/A
6:30 pm86 °FSunny.13 mph24%29.62 "Hg10 mi
6:00 pm86 °FSunny.15 mph25%29.62 "Hg10 mi
5:30 pm88 °FSunny.15 mph27%29.59 "Hg10 mi
4:00 pm91 °FSunny.15 mph28%29.59 "Hg10 mi
3:30 pm91 °FPassing clouds.13 mph30%29.62 "HgN/A
3:00 pm91 °FPassing clouds.10 mph30%29.62 "HgN/A
2:30 pm91 °FPassing clouds.13 mph30%29.62 "HgN/A
2:00 pm91 °FSunny.15 mph30%29.62 "Hg10 mi
1:30 pm91 °FPassing clouds.15 mph30%29.62 "HgN/A
1:00 pm91 °FPassing clouds.13 mph28%29.65 "HgN/A
12:30 pm90 °FPassing clouds.15 mph29%29.65 "HgN/A
12:00 pm90 °FPassing clouds.15 mph29%29.65 "HgN/A
11:30 am90 °FPassing clouds.13 mph27%29.68 "HgN/A
11:00 am88 °FPassing clouds.15 mph31%29.68 "HgN/A
10:30 am86 °FPassing clouds.15 mph31%29.68 "HgN/A
10:00 am86 °FPassing clouds.13 mph33%29.68 "HgN/A
9:30 am81 °FSunny.13 mph39%29.71 "Hg10 mi
9:00 am81 °FPassing clouds.13 mph39%29.71 "HgN/A
8:30 am79 °FPassing clouds.15 mph42%29.71 "HgN/A
8:00 am77 °FSunny.13 mph42%29.71 "Hg10 mi
7:30 am77 °FPassing clouds.10 mph42%29.71 "HgN/A
6:30 am75 °FSunny.10 mph41%29.71 "Hg10 mi
6:00 am75 °FPassing clouds.10 mph39%29.71 "HgN/A
5:30 am75 °FSunny.8 mph36%29.71 "Hg10 mi
5:00 am75 °FPassing clouds.6 mph36%29.71 "HgN/A
Weather by CustomWeather, © 2024

See weather overview